WA6MHA-11 Weather Reports


Display with metric or nautical units.
time (UTC)temp
F
wind
direction
speed
MPH
gust
MPH
rain 1hr
in
rain 24hr
in
rain mn
in
humidity
%
barometer
mb
20260506131946 45 279 0.0 0.0 0.00 0.00 0.00 59 1019.0
20260506131545 44 303 0.0 0.0 0.00 0.00 0.00 59 1019.0
20260506130743 44 235 0.0 0.0 0.00 0.00 0.00 58 1018.8
20260506130343 45 135 0.0 0.0 0.00 0.00 0.00 58 1018.8
20260506125942 45 202 0.0 0.0 0.00 0.00 0.00 58 1018.7
20260506125539 710 234 0.0 1.0 0.00 0.00 0.00 58 1018.6
20260506124335 44 324 0.0 2.0 0.00 0.00 0.00 58 1018.8
20260506123938 44 346 2.0 2.0 0.00 0.00 0.00 58 1018.8
20260506123535 45 312 0.0 0.0 0.00 0.00 0.00 58 1018.6
20260506123332 45 308 0.0 0.0 0.00 0.00 0.00 58 1018.6
20260506123131 45 308 0.0 0.0 0.00 0.00 0.00 58 1018.6
20260506122730 45 288 0.0 0.0 0.00 0.00 0.00 58 1018.6
20260506122330 45 81 0.0 0.0 0.00 0.00 0.00 58 1018.5
20260506121930 46 216 0.0 0.0 0.00 0.00 0.00 58 1.0
20260506121529 46 237 0.0 0.0 0.00 0.00 0.00 58 1018.4
20260506120723 46 180 0.0 0.0 0.00 0.00 0.00 58 1018.4
20260506120322 45 182 0.0 1.0 0.00 0.00 0.00 58 1018.4
20260506115921 45 227 0.0 1.0 0.00 0.00 0.00 58 1018.4
20260506115520 45 274 0.0 1.0 0.00 0.00 0.00 58 1018.5
20260506115119 45 337 0.0 1.0 0.00 0.00 0.00 58 1018.4
20260506114719 46 337 0.0 0.0 0.00 0.00 0.00 58 1018.3
20260506114316 45 274 0.0 0.0 0.00 0.00 0.00 58 1018.3
20260506113915 45 274 0.0 0.0 0.00 0.00 0.00 58 1018.3
20260506113513 46 274 0.0 0.0 0.00 0.00 0.00 58 1018.2
20260506113112 46 306 0.0 0.0 0.00 0.00 0.00 58 1018.3
20260506112711 46 315 0.0 0.0 0.00 0.00 0.00 58 1018.3
20260506112310 46 306 0.0 0.0 0.00 0.00 0.00 58 1018.2
20260506111908 46 42 0.0 0.0 0.00 0.00 0.00 58 1018.2
20260506111541 46 42 0.0 0.0 0.00 0.00 0.00 58 1018.3
20260506111507 46 42 0.0 0.0 0.00 0.00 0.00 58 1018.3
20260506111142 46 310 0.0 0.0 0.00 0.00 0.00 58 1018.3
20260506111106 46 310 0.0 0.0 0.00 0.00 0.00 58 1018.3
20260506110705 46 301 0.0 0.0 0.00 0.00 0.00 58 1018.3
20260506110303 46 228 0.0 0.0 0.00 0.00 0.00 58 1018.3
20260506105902 46 231 0.0 0.0 0.00 0.00 0.00 58 1018.3
20260506105500 46 342 0.0 0.0 0.00 0.00 0.00 57 1018.4
20260506104658 46 232 0.0 0.0 0.00 0.00 0.00 57 1018.3
20260506104257 46 227 0.0 0.0 0.00 0.00 0.00 57 1018.3
20260506103856 46 230 0.0 0.0 0.00 0.00 0.00 57 1018.3
20260506103053 46 306 0.0 0.0 0.00 0.00 0.00 57 1018.3
20260506102651 46 306 0.0 0.0 0.00 0.00 0.00 57 1018.4
20260506102250 47 306 0.0 0.0 0.00 0.00 0.00 57 1018.4
20260506101451 47 315 0.0 0.0 0.00 0.00 0.00 57 1018.3
20260506100645 47 315 0.0 0.0 0.00 0.00 0.00 57 1018.3
20260506100244 48 274 0.0 0.0 0.00 0.00 0.00 57 1018.3
20260506095843 48 231 0.0 0.0 0.00 0.00 0.00 57 1018.3
20260506095442 48 232 0.0 0.0 0.00 0.00 0.00 57 1018.3
20260506095040 48 315 0.0 0.0 0.00 0.00 0.00 57 1018.3
20260506094639 48 279 0.0 1.0 0.00 0.00 0.00 57 1018.3
20260506093839 48 274 0.0 0.0 0.00 0.00 0.00 57 1018.6
20260506092633 48 335 0.0 0.0 0.00 0.00 0.00 57 1018.5
20260506092233 48 353 0.0 0.0 0.00 0.00 0.00 57 1018.5
20260506091829 48 310 0.0 0.0 0.00 0.00 0.00 56 1018.4
20260506091428 48 279 0.0 0.0 0.00 0.00 0.00 56 1018.4
20260506090626 48 306 0.0 1.0 0.00 0.00 0.00 56 1018.6
20260506090225 48 312 0.0 0.0 0.00 0.00 0.00 56 1018.6
20260506085827 49 274 0.0 0.0 0.00 0.00 0.00 56 1018.5
20260506085423 49 279 0.0 0.0 0.00 0.00 0.00 56 1018.6
20260506085021 49 274 0.0 0.0 0.00 0.00 0.00 56 1018.6
20260506084620 49 283 0.0 0.0 0.00 0.00 0.00 56 1018.7
20260506084218 49 283 0.0 0.0 0.00 0.00 0.00 56 1018.7
20260506083817 49 234 0.0 1.0 0.00 0.00 0.00 56 1018.8
20260506083416 49 301 0.0 0.0 0.00 0.00 0.00 56 1018.8
20260506083014 49 310 0.0 0.0 0.00 0.00 0.00 56 1018.9
20260506082613 49 310 0.0 1.0 0.00 0.00 0.00 56 1018.8
20260506081410 49 233 0.0 1.0 0.00 0.00 0.00 56 1018.8
20260506080205 49 274 0.0 0.0 0.00 0.00 0.00 56 1018.8
20260506073358 49 270 0.0 0.0 0.00 0.00 0.00 55 1018.9
20260506072555 49 298 0.0 0.0 0.00 0.00 0.00 55 1018.9
20260506071751 50 270 0.0 0.0 0.00 0.00 0.00 55 1018.8
20260506071350 50 274 0.0 0.0 0.00 0.00 0.00 55 1018.7
20260506070949 50 306 0.0 0.0 0.00 0.00 0.00 55 1018.7
20260506070548 50 310 0.0 0.0 0.00 0.00 0.00 54 1018.7
20260506061331 52 283 0.0 1.0 0.00 0.00 0.00 53 1018.1
20260506060930 52 227 0.0 0.0 0.00 0.00 0.00 53 1018.2
20260506060127 52 135 0.0 1.0 0.00 0.00 0.00 53 1018.1
20260506051311 54 227 0.0 0.0 0.00 0.00 0.00 51 1017.8
20260506050910 54 225 0.0 0.0 0.00 0.00 0.00 51 1017.7
20260506044904 55 182 0.0 0.0 0.00 0.00 0.00 50 1017.5
20260506044503 55 182 0.0 0.0 0.00 0.00 0.00 50 1017.5
20260506044101 55 45 0.0 0.0 0.00 0.00 0.00 50 1017.5
20260506043700 55 45 0.0 1.0 0.00 0.00 0.00 49 1017.5
20260506043259 55 45 1.0 1.0 0.00 0.00 0.00 49 1017.3
20260506042857 56 85 0.0 0.0 0.00 0.00 0.00 49 1017.2
20260506042503 55 45 0.0 1.0 0.00 0.00 0.00 49 1017.2
20260506042057 56 42 0.0 1.0 0.00 0.00 0.00 49 1017.1
20260506041654 56 45 0.0 1.0 0.00 0.00 0.00 48 1017.1
20260506041253 57 135 0.0 1.0 0.00 0.00 0.00 48 1017.0
20260506040451 57 78 0.0 1.0 0.00 0.00 0.00 48 1016.9
20260506040048 57 346 0.0 0.0 0.00 0.00 0.00 48 1016.9
20260506035246 58 306 0.0 0.0 0.00 0.00 0.00 47 1016.8
20260506034956 58 274 0.0 1.0 0.00 0.00 0.00 47 1016.8
20260506034845 58 274 0.0 1.0 0.00 0.00 0.00 47 1016.8
20260506034444 58 135 1.0 2.0 0.00 0.00 0.00 47 1016.7
20260506032838 58 283 1.0 1.0 0.00 0.00 0.00 45 1016.6
20260506032036 58 83 2.0 2.0 0.00 0.00 0.00 45 1016.4
20260506031634 59 83 1.0 2.0 0.00 0.00 0.00 45 1016.3
20260506030833 59 27 1.0 1.0 0.00 0.00 0.00 44 1016.1
20260506030431 59 315 0.0 1.0 0.00 0.00 0.00 43 1016.1
20260506030032 59 277 0.0 3.0 0.00 0.00 0.00 43 1016.0
20260506025628 60 135 2.0 3.0 0.00 0.00 0.00 43 1016.0
20260506025226 60 135 2.0 3.0 0.00 0.00 0.00 42 1016.0
20260506024825 60 130 3.0 5.0 0.00 0.00 0.00 42 1015.9
20260506024424 60 108 3.0 6.0 0.00 0.00 0.00 42 1015.7
20260506024023 60 83 5.0 8.0 0.00 0.00 0.00 41 1015.8
20260506022824 61 135 1.0 3.0 0.00 0.00 0.00 41 1015.7
20260506022417 61 85 3.0 3.0 0.00 0.00 0.00 40 1015.5
20260506022020 61 135 3.0 5.0 0.00 0.00 0.00 40 1015.6
20260506021615 61 128 5.0 6.0 0.00 0.00 0.00 40 1015.4
20260506021214 62 85 5.0 5.0 0.00 0.00 0.00 40 1015.4
20260506020813 62 135 4.0 4.0 0.00 0.00 0.00 39 1015.3
20260506020411 62 87 3.0 5.0 0.00 0.00 0.00 39 1015.4
20260506015207 62 112 3.0 6.0 0.00 0.00 0.00 38 1015.3
20260506014806 63 135 4.0 4.0 0.00 0.00 0.00 38 1015.3
20260506014405 63 155 3.0 6.0 0.00 0.00 0.00 38 1015.3
20260506014003 63 114 4.0 7.0 0.00 0.00 0.00 37 1015.2
20260506013201 64 117 4.0 6.0 0.00 0.00 0.00 37 1015.1
20260506012359 65 110 4.0 6.0 0.00 0.00 0.00 37 1015.1
20260506011957 65 148 4.0 6.0 0.00 0.00 0.00 36 1015.1
20260506011556 65 123 1.0 6.0 0.00 0.00 0.00 36 1015.0
20260506011154 65 157 3.0 5.0 0.00 0.00 0.00 36 1015.1
20260506010753 65 144 4.0 7.0 0.00 0.00 0.00 36 1015.1
20260506005951 66 132 6.0 6.0 0.00 0.00 0.00 36 1015.1
20260506005550 66 123 3.0 7.0 0.00 0.00 0.00 35 1015.1
20260506004821 67 135 3.0 5.0 0.00 0.00 0.00 35 1015.0
20260506004747 67 135 3.0 5.0 0.00 0.00 0.00 35 1015.0
20260506003543 68 183 1.0 3.0 0.00 0.00 0.00 35 1014.9
20260506003142 68 213 2.0 4.0 0.00 0.00 0.00 35 1014.9
20260506002339 68 180 3.0 3.0 0.00 0.00 0.00 34 1014.9
20260506001135 69 185 1.0 5.0 0.00 0.00 0.00 34 1014.7
20260506000734 69 195 1.0 7.0 0.00 0.00 0.00 34 1014.7
20260505235931 69 135 1.0 6.0 0.00 0.00 0.00 33 1014.7
20260505235532 69 193 1.0 6.0 0.00 0.00 0.00 33 1014.7
20260505234728 69 184 1.0 3.0 0.00 0.00 0.00 33 1014.8
20260505233929 69 139 2.0 7.0 0.00 0.00 0.00 32 1014.8
20260505233123 69 171 6.0 6.0 0.00 0.00 0.00 32 1015.0
20260505232721 69 171 4.0 9.0 0.00 0.00 0.00 31 1014.8
20260505232320 69 220 6.0 10.0 0.00 0.00 0.00 31 1014.8
20260505231920 69 182 4.0 9.0 0.00 0.00 0.00 31 1014.9
20260505231518 70 183 7.0 12.0 0.00 0.00 0.00 31 1014.7
20260505231116 70 211 2.0 12.0 0.00 0.00 0.00 31 1014.7
20260505230715 70 186 10.0 12.0 0.00 0.00 0.00 31 1014.8
20260505230313 71 209 4.0 13.0 0.00 0.00 0.00 31 1014.9
20260505225912 72 180 8.0 11.0 0.00 0.00 0.00 31 1014.9
20260505225109 72 199 5.0 10.0 0.00 0.00 0.00 31 1014.9
20260505224708 71 210 10.0 14.0 0.00 0.00 0.00 30 1014.9
20260505224307 71 182 8.0 12.0 0.00 0.00 0.00 30 1015.0
20260505223906 71 198 8.0 10.0 0.00 0.00 0.00 30 1015.0
20260505223103 70 232 3.0 7.0 0.00 0.00 0.00 29 1015.0
20260505222701 70 202 4.0 9.0 0.00 0.00 0.00 28 1015.1
20260505222300 71 196 3.0 9.0 0.00 0.00 0.00 28 1015.1
20260505221902 71 142 4.0 11.0 0.00 0.00 0.00 28 1015.1
20260505221058 73 193 8.0 11.0 0.00 0.00 0.00 27 1015.1
20260505220656 74 45 0.0 9.0 0.00 0.00 0.00 27 1015.0
20260505220254 74 205 4.0 7.0 0.00 0.00 0.00 27 1015.1
20260505215853 75 153 2.0 5.0 0.00 0.00 0.00 27 1015.1
20260505215451 76 212 3.0 12.0 0.00 0.00 0.00 27 1015.1
20260505215050 76 172 3.0 7.0 0.00 0.00 0.00 27 1015.2
20260505214649 77 292 3.0 7.0 0.00 0.00 0.00 27 1015.2
20260505213447 76 244 3.0 4.0 0.00 0.00 0.00 27 1015.2
20260505212643 75 165 4.0 5.0 0.00 0.00 0.00 26 1015.2
20260505212242 76 173 7.0 7.0 0.00 0.00 0.00 27 1015.2
20260505211438 76 228 2.0 5.0 0.00 0.00 0.00 27 1015.3
20260505211037 76 180 5.0 9.0 0.00 0.00 0.00 28 1015.3
20260505210236 77 208 5.0 6.0 0.00 0.00 0.00 28 1015.2
20260505205433 76 155 4.0 10.0 0.00 0.00 0.00 29 1015.3
20260505205030 75 194 6.0 8.0 0.00 0.00 0.00 29 1015.3
20260505204629 73 180 5.0 10.0 0.00 0.00 0.00 29 1015.3
20260505204234 72 90 2.0 8.0 0.00 0.00 0.00 28 1015.3
20260505203426 72 207 8.0 8.0 0.00 0.00 0.00 27 1015.2
20260505202623 73 153 2.0 5.0 0.00 0.00 0.00 27 1015.2
20260505202222 74 210 2.0 4.0 0.00 0.00 0.00 27 1015.3
20260505201821 74 195 2.0 8.0 0.00 0.00 0.00 28 1015.2
20260505201419 74 209 6.0 10.0 0.00 0.00 0.00 28 1015.2
20260505201018 73 198 2.0 8.0 0.00 0.00 0.00 28 1015.3
20260505200617 73 189 7.0 7.0 0.00 0.00 0.00 28 1015.3
20260505200215 72 175 3.0 3.0 0.00 0.00 0.00 27 1015.2
20260505195816 72 162 2.0 7.0 0.00 0.00 0.00 27 1015.2
20260505195414 71 180 3.0 8.0 0.00 0.00 0.00 26 1015.3
20260505195012 70 135 8.0 10.0 0.00 0.00 0.00 27 1015.3
20260505194611 74 177 3.0 6.0 0.00 0.00 0.00 28 1015.4
20260505194209 75 186 5.0 7.0 0.00 0.00 0.00 29 1015.3
20260505193807 74 135 7.0 10.0 0.00 0.00 0.00 29 1015.4
20260505192605 74 193 5.0 7.0 0.00 0.00 0.00 29 1015.5
20260505191802 76 135 9.0 10.0 0.00 0.00 0.00 30 1015.5
20260505191402 79 155 4.0 7.0 0.00 0.00 0.00 30 1015.5
20260505191400 79 155 4.0 7.0 0.00 0.00 0.00 30 1015.5
20260505190557 77 225 2.0 3.0 0.00 0.00 0.00 30 1015.5
20260505190156 77 197 0.0 5.0 0.00 0.00 0.00 30 1015.5
20260505185830 77 83 1.0 7.0 0.00 0.00 0.00 31 1015.5
20260505185756 77 83 1.0 7.0 0.00 0.00 0.00 31 1015.5
20260505185354 79 278 1.0 6.0 0.00 0.00 0.00 32 1015.5
20260505184551 77 183 2.0 4.0 0.00 0.00 0.00 33 1015.6
20260505183749 76 42 0.0 2.0 0.00 0.00 0.00 34 1015.6
20260505182947 72 168 2.0 4.0 0.00 0.00 0.00 35 1015.6
20260505182544 72 337 1.0 4.0 0.00 0.00 0.00 35 1015.6
20260505182143 71 324 2.0 5.0 0.00 0.00 0.00 36 1015.7
20260505181742 69 270 5.0 5.0 0.00 0.00 0.00 36 1015.7
20260505181341 68 42 4.0 4.0 0.00 0.00 0.00 37 1015.7
20260505180942 68 307 2.0 3.0 0.00 0.00 0.00 37 1015.7
20260505180539 67 348 1.0 6.0 0.00 0.00 0.00 37 1015.7
20260505180140 67 45 0.0 1.0 0.00 0.00 0.00 38 1015.8
20260505175742 67 330 1.0 6.0 0.00 0.00 0.00 38 1015.7
20260505175334 66 30 4.0 4.0 0.00 0.00 0.00 39 1015.7
20260505174937 66 157 0.0 5.0 0.00 0.00 0.00 39 1015.6
20260505174540 66 40 0.0 6.0 0.00 0.00 0.00 39 1015.6
20260505173730 64 0 1.0 3.0 0.00 0.00 0.00 40 1015.6
20260505173328 63 45 3.0 5.0 0.00 0.00 0.00 40 1015.6
20260505172928 63 28 4.0 4.0 0.00 0.00 0.00 40 1015.4
20260505172602 63 310 3.0 6.0 0.00 0.00 0.00 41 1015.5
20260505172527 63 310 3.0 6.0 0.00 0.00 0.00 41 1015.5
20260505171755 63 306 1.0 3.0 0.00 0.00 0.00 41 1015.5
20260505171723 63 306 1.0 3.0 0.00 0.00 0.00 41 1015.5
20260505165717 62 39 4.0 8.0 0.00 0.00 0.00 42 1015.4
20260505165321 62 322 6.0 6.0 0.00 0.00 0.00 42 1015.4
20260505164914 63 339 3.0 4.0 0.00 0.00 0.00 42 1015.3
20260505164116 63 330 1.0 3.0 0.00 0.00 0.00 43 1015.3
20260505162947 62 16 2.0 4.0 0.00 0.00 0.00 43 1015.3
20260505162912 62 16 2.0 4.0 0.00 0.00 0.00 43 1015.3
20260505162506 63 40 4.0 4.0 0.00 0.00 0.00 43 1015.2
20260505162107 62 45 1.0 3.0 0.00 0.00 0.00 44 1015.2
20260505161707 62 45 1.0 4.0 0.00 0.00 0.00 44 1015.1
20260505161302 62 33 2.0 5.0 0.00 0.00 0.00 44 1015.2
20260505160908 62 310 2.0 4.0 0.00 0.00 0.00 45 1015.1
20260505160500 62 355 3.0 6.0 0.00 0.00 0.00 45 1015.1
20260505153243 59 45 1.0 3.0 0.00 0.00 0.00 49 1015.1
20260505152930 59 20 3.0 4.0 0.00 0.00 0.00 49 1015.2
20260505152842 59 20 3.0 4.0 0.00 0.00 0.00 49 1015.2
20260505152442 59 339 4.0 5.0 0.00 0.00 0.00 50 1015.0
20260505151639 59 36 5.0 7.0 0.00 0.00 0.00 51 1015.1
20260505151240 59 28 4.0 5.0 0.00 0.00 0.00 52 1015.1
20260505150842 59 20 4.0 6.0 0.00 0.00 0.00 52 1015.0
20260505150434 59 11 3.0 3.0 0.00 0.00 0.00 52 1014.9
20260505140418 52 45 0.0 0.0 0.00 0.00 0.00 57 1014.6